Weather History for Kelso-Longview, WA

Change the Weather History Date:

Saturday, November 30, 2013

  Actual Average Record
Temperature  
Mean Temperature 45 °F -  
Max Temperature 48 °F 45 °F 57 °F (2008)
Min Temperature 42 °F 35 °F 21 °F (2014)
Degree Days  
Heating Degree Days 20    
Moisture  
Dew Point 39 °F    
Average Humidity 79    
Maximum Humidity 87    
Minimum Humidity 71    
Precipitation  
Precipitation 0.16 in - - ()
Sea Level Pressure  
Sea Level Pressure 30.35 in    
Wind  
Wind Speed 6 mph (SSE)    
Max Wind Speed 14 mph    
Max Gust Speed 17 mph    
Visibility 8 miles    
Events      
Averages and records for this station are not official NWS values.
T = Trace of Precipitation, MM = Missing Value Source: NWS Daily Summary

Daily Weather History Graph

Daily Weather History Graph

Search for Another Location

Airport:

Trip Planner

Search our weather history database for the weather conditions in past years. The results will help you decide how hot, cold, wet, or windy it might be!

Date:

Astronomy

Nov. 30, 2013 Rise Set
Actual Time 7:32 AM PST 4:27 PM PST
Civil Twilight 6:58 AM PST 5:01 PM PST
Nautical Twilight 6:21 AM PST 5:39 PM PST
Astronomical Twilight 5:45 AM PST 6:15 PM PST
Moon 4:42 AM PST (11/30) 3:02 PM PST (11/30)
Length of Visible Light 10h 03m
Length of Day
8h 55m
Waning Crescent, 6% of the Moon is Illuminated
Nov 30
Waning Crescent
Dec 2
New
Dec 9
First Quarter
Dec 17
Full
Dec 25
Last Quarter

Hourly Weather History & Observations

Time (PST) Temp. Windchill Dew Point Humidity Pressure Visibility Wind Dir Wind Speed Gust Speed Precip Events Conditions
12:15 AM 42.8 °F 39.3 °F 35.6 °F 76% 30.39 in 10.0 mi SE 5.8 mph - N/A   Overcast
12:35 AM 42.8 °F 40.1 °F 35.6 °F 76% 30.40 in 10.0 mi South 4.6 mph - N/A   Overcast
12:55 AM 42.8 °F 41.1 °F 35.6 °F 76% 30.40 in 10.0 mi SE 3.5 mph - N/A   Overcast
1:15 AM 42.8 °F 40.1 °F 35.6 °F 76% 30.41 in 10.0 mi SSE 4.6 mph - N/A   Overcast
1:35 AM 42.8 °F 41.1 °F 37.4 °F 81% 30.40 in 10.0 mi SE 3.5 mph - N/A   Overcast
1:55 AM 42.8 °F 41.1 °F 37.4 °F 81% 30.38 in 10.0 mi ESE 3.5 mph - N/A   Overcast
2:15 AM 42.8 °F 40.1 °F 37.4 °F 81% 30.39 in 10.0 mi South 4.6 mph - N/A   Overcast
2:35 AM 42.8 °F - 37.4 °F 81% 30.39 in 10.0 mi Calm Calm - N/A   Overcast
2:55 AM 42.8 °F 40.1 °F 37.4 °F 81% 30.39 in 10.0 mi SE 4.6 mph - N/A   Overcast
3:15 AM 42.8 °F - 37.4 °F 81% 30.39 in 9.0 mi Calm Calm - N/A   Overcast
3:35 AM 42.8 °F - 37.4 °F 81% 30.39 in 9.0 mi Calm Calm - N/A   Overcast
3:55 AM 42.8 °F - 37.4 °F 81% 30.39 in 9.0 mi Calm Calm - N/A   Overcast
4:15 AM 42.8 °F - 37.4 °F 81% 30.39 in 10.0 mi Calm Calm - N/A   Overcast
4:35 AM 42.8 °F 41.1 °F 37.4 °F 81% 30.39 in 10.0 mi SE 3.5 mph - N/A   Overcast
4:55 AM 42.8 °F - 37.4 °F 81% 30.39 in 8.0 mi Calm Calm - N/A   Overcast
5:15 AM 42.8 °F - 37.4 °F 81% 30.39 in 8.0 mi Calm Calm - N/A   Overcast
5:35 AM 42.8 °F 41.1 °F 37.4 °F 81% 30.39 in 10.0 mi SSE 3.5 mph - N/A   Overcast
5:55 AM 42.8 °F 40.1 °F 37.4 °F 81% 30.39 in 10.0 mi SSE 4.6 mph - N/A   Overcast
6:15 AM 42.8 °F 41.1 °F 37.4 °F 81% 30.39 in 8.0 mi SSE 3.5 mph - N/A   Overcast
6:35 AM 42.8 °F 40.1 °F 37.4 °F 81% 30.39 in 10.0 mi ESE 4.6 mph - N/A   Overcast
6:55 AM 42.8 °F 40.1 °F 37.4 °F 81% 30.39 in 10.0 mi SSE 4.6 mph - N/A   Overcast
7:15 AM 42.8 °F 38.6 °F 39.2 °F 87% 30.39 in 9.0 mi SSE 6.9 mph - N/A   Overcast
7:35 AM 42.8 °F 39.3 °F 37.4 °F 81% 30.40 in 7.0 mi SE 5.8 mph - N/A   Overcast
7:55 AM 42.8 °F 38.0 °F 37.4 °F 81% 30.40 in 6.0 mi SE 8.1 mph - N/A   Overcast
8:15 AM 42.8 °F 38.6 °F 37.4 °F 81% 30.40 in 7.0 mi SSE 6.9 mph - N/A   Overcast
8:35 AM 42.8 °F 38.0 °F 37.4 °F 81% 30.40 in 7.0 mi SE 8.1 mph - N/A   Overcast
8:55 AM 42.8 °F 38.0 °F 37.4 °F 81% 30.40 in 7.0 mi SE 8.1 mph - N/A   Overcast
9:15 AM 42.8 °F 38.6 °F 37.4 °F 81% 30.41 in 6.0 mi SSE 6.9 mph - N/A   Overcast
9:35 AM 44.6 °F 38.1 °F 37.4 °F 76% 30.40 in 6.0 mi SSE 13.8 mph - N/A   Overcast
9:55 AM 44.6 °F 40.2 °F 39.2 °F 81% 30.40 in 6.0 mi SSE 8.1 mph - N/A   Overcast
10:15 AM 44.6 °F 39.7 °F 39.2 °F 81% 30.40 in 6.0 mi SSE 9.2 mph - N/A   Overcast
10:35 AM 44.6 °F 39.2 °F 39.2 °F 81% 30.41 in 7.0 mi South 10.4 mph - N/A   Overcast
10:55 AM 44.6 °F 40.2 °F 39.2 °F 81% 30.41 in 7.0 mi SSE 8.1 mph - N/A   Overcast
11:15 AM 46.4 °F 42.9 °F 39.2 °F 76% 30.40 in 6.0 mi SE 6.9 mph - N/A   Overcast
11:35 AM 46.4 °F 42.9 °F 39.2 °F 76% 30.39 in 8.0 mi SE 6.9 mph - N/A   Overcast
11:55 AM 46.4 °F 42.9 °F 39.2 °F 76% 30.39 in 8.0 mi SSE 6.9 mph - N/A   Overcast
12:15 PM 48.2 °F - 39.2 °F 71% 30.39 in 8.0 mi SE 8.1 mph - N/A   Overcast
12:35 PM 48.2 °F - 39.2 °F 71% 30.38 in 8.0 mi SSE 6.9 mph - N/A   Overcast
12:55 PM 48.2 °F - 41.0 °F 76% 30.38 in 8.0 mi SSE 6.9 mph - N/A   Overcast
1:15 PM 48.2 °F - 39.2 °F 71% 30.37 in 8.0 mi SE 6.9 mph - N/A   Overcast
1:35 PM 48.2 °F - 41.0 °F 76% 30.37 in 6.0 mi SSE 4.6 mph - N/A   Overcast
1:55 PM 48.2 °F - 41.0 °F 76% 30.36 in 5.0 mi SSE 4.6 mph - N/A   Overcast
2:15 PM 48.2 °F - 42.8 °F 82% 30.36 in 4.0 mi SSE 8.1 mph - N/A   Overcast
2:35 PM 48.2 °F - 42.8 °F 82% 30.35 in 7.0 mi SSE 4.6 mph - N/A   Overcast
2:55 PM 48.2 °F - 42.8 °F 82% 30.35 in 7.0 mi SSE 6.9 mph - N/A   Overcast
3:15 PM 48.2 °F - 42.8 °F 82% 30.35 in 7.0 mi SSE 4.6 mph - N/A   Overcast
3:35 PM 48.2 °F - 41.0 °F 76% 30.34 in 8.0 mi SE 6.9 mph - N/A   Overcast
3:55 PM 48.2 °F - 41.0 °F 76% 30.35 in 8.0 mi SE 5.8 mph - N/A   Overcast
4:35 PM 48.2 °F - 41.0 °F 76% 30.33 in 7.0 mi SE 6.9 mph - N/A   Overcast
4:55 PM 48.2 °F - 41.0 °F 76% 30.34 in 8.0 mi SE 4.6 mph - N/A   Overcast
5:15 PM 48.2 °F - 41.0 °F 76% 30.34 in 8.0 mi SSE 8.1 mph - N/A   Overcast
5:35 PM 48.2 °F - 41.0 °F 76% 30.34 in 8.0 mi SSE 5.8 mph - N/A   Overcast
5:55 PM 48.2 °F - 41.0 °F 76% 30.33 in 8.0 mi SSE 6.9 mph - N/A   Overcast
6:15 PM 48.2 °F - 41.0 °F 76% 30.32 in 8.0 mi SSE 6.9 mph - N/A   Overcast
6:35 PM 48.2 °F - 41.0 °F 76% 30.32 in 8.0 mi SSE 8.1 mph - N/A   Overcast
6:55 PM 48.2 °F - 39.2 °F 71% 30.31 in 8.0 mi SSE 9.2 mph - N/A   Overcast
7:15 PM 48.2 °F - 39.2 °F 71% 30.31 in 8.0 mi SSE 10.4 mph - N/A   Overcast
7:35 PM 48.2 °F - 39.2 °F 71% 30.30 in 8.0 mi SSE 10.4 mph - N/A   Overcast
7:55 PM 46.4 °F 41.5 °F 39.2 °F 76% 30.29 in 8.0 mi SSE 10.4 mph 17.3 mph N/A   Overcast
8:15 PM 48.2 °F - 39.2 °F 71% 30.29 in 8.0 mi SSE 11.5 mph 17.3 mph N/A   Overcast
8:35 PM 48.2 °F - 39.2 °F 71% 30.27 in 8.0 mi SSE 11.5 mph - N/A   Overcast
8:55 PM 48.2 °F - 39.2 °F 71% 30.27 in 8.0 mi SSE 13.8 mph - N/A   Overcast
9:15 PM 48.2 °F - 41.0 °F 76% 30.27 in 8.0 mi SSE 9.2 mph - N/A   Overcast
9:35 PM 46.4 °F 43.5 °F 41.0 °F 81% 30.27 in 5.0 mi SSE 5.8 mph - 0.01 in   Overcast
9:55 PM 46.4 °F 41.1 °F 42.8 °F 87% 30.25 in 5.0 mi SSE 11.5 mph - 0.03 in   Overcast
10:15 PM 46.4 °F 42.4 °F 42.8 °F 87% 30.25 in 5.0 mi SSE 8.1 mph 16.1 mph 0.02 in   Overcast
10:35 PM 46.4 °F 41.9 °F 42.8 °F 87% 30.24 in 4.0 mi SSE 9.2 mph - 0.05 in   Overcast
10:55 PM 46.4 °F 41.9 °F 42.8 °F 87% 30.23 in 4.0 mi SSE 9.2 mph - 0.07 in   Mostly Cloudy
11:15 PM 46.4 °F 41.5 °F 42.8 °F 87% 30.23 in 4.0 mi South 10.4 mph - 0.03 in   Overcast
11:35 PM 46.4 °F 42.4 °F 42.8 °F 87% 30.22 in 5.0 mi SSE 8.1 mph - 0.05 in   Overcast
11:55 PM 46.4 °F 41.9 °F 42.8 °F 87% 30.21 in 4.0 mi SSE 9.2 mph - 0.06 in   Overcast